Location: *
(53.4003°S, 165.3236°W)
Time: 03:17:53
(UTC+00:00)

NOSS 0 Rocket - Pass Details

Date: 11 December 2023
Orbit: 937 x 952 km, 70.0° (Epoch: 24 February)

Event Time Altitude Azimuth Distance (km) Brightness Sun altitude
Rises 12:22:17 0° 215° (SW) 3,642 7.5 -11.3°
Reaches altitude 10° 12:24:50 10° 215° (SW) 2,694 6.8 -11.1°
Maximum altitude 12:31:06 82° 301° (WNW) 971 3.9 -10.8°
Drops below altitude 10° 12:37:21 10° 27° (NNE) 2,678 5.9 -10.4°
Sets 12:39:52 0° 28° (NNE) 3,619 6.6 -10.3°
